Weather in Mokshino

Russia / Tver Oblast     56°34′44″N   36°30′17″E
temp.,
°C
wind,
m/s
gust,
m/s
humid.,
%
clouds,
%
prec.,
mm/h
press.,
hPa
HPBL,
m
14 may, fri
fri1400:00+9sse3109795 0.0 1015294
03:00+8sse289720 0.0 1016176
06:00+9sse399115 0.0 1017260
09:00+14sse3666100 0.0 1017624
12:00+18sse465081 0.0 10161490
15:00+20sse474762 0.0 10141828
18:00+18se3676100 0.8 1013529
21:00+13ese3994100 2.4 1011319
15 may, sat
sat1500:00+13ese2499100 2.1 1011128
03:00+12ese2798100 2.1 1009149
06:00+14se3109672 0.0 1009380
09:00+18s4983100 0.0 1009678
12:00+21ssw4663100 0.1 10081296
15:00+21ssw466451 1.6 10071312
18:00+18ssw487744 2.4 1006402
21:00+15s4119093 3.2 1007388
16 may, sun
sun1600:00+13s411955 0.0 1008479
03:00+12ssw4109769 0.0 1008408
06:00+13ssw4993100 0.0 1009513
09:00+15sw598297 0.0 1010671
12:00+19sw576376 0.1 10101374
15:00+19sw577393 2.4 10101136
18:00+18sw48788 1.2 1010927
21:00+14ssw399510 1.5 1011226
17 may, mon
mon1700:00+13ssw28975 0.0 1012207
03:00+11sw279810 0.0 1014145
06:00+12sw2594100 0.0 1014141
09:00+18ssw237379 0.0 1015442
12:00+22s3454100 0.0 10141422
15:00+23se2446100 0.0 10131454
18:00+22ese365863 0.0 1012870
21:00+16e3118940 0.4 1011248
18 may, tue
tue1800:00+15ese31195100 0.1 1010241
03:00+15ese3119620 0.1 1009236
06:00+15ese412895 0.0 1008324
09:00+21se59615 0.0 1007512
12:00+25se61145100 0.0 10061257
15:00+26sse595258 0.0 10051881
18:00+20sse41184100 2.1 1005540
21:00+16sse4129294 3.2 1006519